Theta_e
346 346 346 347 345 344 346 346 346 347 348 349 349 349 350 350 351 353 355 357 358 359 359 360 358 357 358 360 360 360 361 361 361 360 360 359 359 359 359 360 360 359 358 358 357 359 360 360 359 360 360 360 360 360 359 360 360 359 359 360 359 359 360
345 345 345 345 346 345 346 346 347 347 348 349 350 349 349 350 351 352 354 356 357 359 358 359 358 357 357 358 358 358 360 361 360 359 359 359 360 361 360 359 359 359 359 357 357 359 361 361 361 361 362 361 360 361 359 359 359 359 361 362 360 362 362
345 346 346 345 346 345 346 347 347 348 349 349 349 349 348 349 351 352 354 355 356 357 357 357 358 357 356 357 357 357 358 359 360 359 358 358 358 359 360 359 359 358 358 358 357 358 358 360 361 362 361 360 360 360 359 360 359 359 364 364 361 363 364
346 345 346 346 346 345 346 347 348 349 349 349 349 348 349 350 351 352 353 353 354 355 356 356 356 356 356 357 356 356 357 357 358 358 357 356 355 357 358 359 359 357 357 358 357 357 357 358 360 361 361 361 361 360 359 360 359 359 363 363 360 363 364
347 346 345 346 345 345 346 347 348 348 348 348 348 348 349 350 351 352 352 351 350 352 354 354 353 354 355 355 355 355 355 356 356 357 357 355 355 356 356 358 358 356 357 357 357 358 358 358 359 360 360 361 362 360 360 360 360 360 363 361 359 362 362
347 347 347 346 345 345 346 347 347 347 348 348 348 348 349 350 351 351 351 350 349 349 351 352 352 352 353 354 353 354 354 355 355 356 356 356 356 356 356 356 356 355 356 357 356 357 358 357 358 358 358 358 358 359 359 359 359 360 361 360 360 362 361
350 349 348 346 345 345 345 346 347 347 348 348 348 347 348 350 351 352 352 350 349 348 349 350 350 351 352 352 352 352 353 354 354 354 356 357 357 357 356 356 356 355 356 356 356 357 357 356 358 358 357 357 356 357 358 359 359 361 362 362 362 362 360
354 353 351 347 344 344 346 347 347 348 349 349 349 349 348 349 351 351 352 351 350 349 348 349 349 350 352 352 351 351 352 352 353 353 353 355 356 356 356 357 356 356 356 356 356 357 356 356 357 357 357 357 356 357 360 361 361 361 361 362 363 362 359
357 358 358 354 347 344 347 348 346 348 349 350 351 350 347 348 350 353 353 353 352 350 349 350 349 350 352 352 351 351 351 351 351 352 351 352 354 355 355 356 356 356 357 357 357 357 357 356 355 357 357 357 358 359 360 362 360 359 360 362 364 363 361
359 360 358 355 350 346 347 347 346 347 350 353 354 353 349 348 352 356 356 356 356 352 351 352 350 350 353 353 352 351 350 350 350 350 349 349 350 352 352 353 355 357 356 356 355 355 357 356 356 359 358 358 361 361 360 362 360 358 360 362 363 363 361
360 361 360 357 351 348 347 347 348 348 352 356 358 356 353 351 356 359 359 360 360 356 355 354 350 350 353 354 352 351 350 350 349 348 348 347 347 348 349 350 352 355 355 354 354 354 356 356 357 361 360 358 361 361 360 362 361 359 360 360 361 361 360
361 363 364 362 359 355 353 353 353 353 355 359 359 358 358 357 359 362 361 362 362 361 360 357 353 352 354 354 353 353 352 350 348 347 347 347 346 345 347 347 348 351 353 353 352 352 355 356 356 359 360 359 360 360 361 362 361 361 361 360 360 360 358
360 362 361 362 362 360 361 361 359 359 360 360 359 358 359 360 360 362 362 362 363 363 362 361 358 356 356 356 353 354 354 352 349 347 345 346 346 344 345 345 345 347 349 351 351 350 352 354 355 357 358 358 358 359 361 362 361 361 361 360 359 358 357
358 358 358 360 361 361 362 362 362 363 362 361 360 359 359 360 360 362 362 361 362 362 362 363 362 360 361 359 355 355 356 354 350 349 347 347 346 344 345 345 344 345 346 347 348 348 348 350 351 354 355 356 356 356 357 358 359 359 360 360 359 357 356
355 354 354 356 358 359 359 359 360 360 359 359 360 361 361 361 360 361 361 361 362 361 361 362 363 364 363 362 358 358 359 356 353 353 352 352 351 349 348 347 346 346 345 345 346 347 346 346 347 349 351 352 353 353 352 352 353 355 356 358 358 356 354
354 352 352 353 354 356 357 358 359 358 357 357 358 359 360 360 360 360 360 360 360 361 361 362 364 365 365 363 362 362 362 360 358 358 358 359 359 358 356 353 349 348 347 347 347 346 346 346 345 346 347 348 350 351 350 349 349 350 352 354 355 356 353
354 353 353 352 353 354 355 357 359 358 357 357 357 357 357 357 358 359 358 358 358 359 360 361 362 364 364 365 365 365 364 363 362 362 361 361 362 362 361 359 355 353 352 352 351 350 348 347 346 345 345 345 347 348 348 348 348 349 350 352 353 354 354
352 353 354 354 354 355 355 356 357 357 357 356 357 357 356 356 357 357 357 357 357 358 359 359 359 361 362 364 365 364 363 362 361 360 360 361 363 363 363 362 360 359 358 357 356 354 352 351 350 349 346 344 344 344 345 348 349 348 349 351 352 352 351
353 352 353 354 353 353 354 354 355 355 355 355 356 356 357 357 357 356 357 357 357 358 358 358 358 359 361 361 360 360 359 357 357 357 357 360 362 363 363 363 362 361 361 362 361 359 357 355 354 353 350 348 345 343 345 349 349 348 348 351 352 352 351
352 351 351 350 348 349 350 350 350 350 350 351 352 352 352 353 353 353 354 355 355 355 355 356 357 357 358 358 357 356 356 355 355 356 356 356 357 359 360 361 361 361 362 363 363 364 363 360 357 355 354 353 351 348 351 353 352 350 350 351 351 352 351
350 349 347 345 345 347 348 348 347 347 347 346 346 346 347 348 349 350 351 351 351 351 350 351 351 352 353 354 354 355 355 355 355 355 356 355 355 356 356 357 358 359 360 362 362 363 362 361 359 357 356 358 356 352 352 353 353 353 352 352 352 352 351
347 345 344 344 344 345 345 344 344 344 344 342 342 342 342 343 345 346 346 347 348 347 346 347 347 348 350 351 352 353 354 354 354 355 356 355 355 356 356 356 357 357 358 360 360 359 358 357 357 355 355 356 353 350 349 351 352 353 353 353 353 352 351
344 343 344 344 343 343 342 341 340 340 340 340 340 340 340 340 340 341 341 342 342 343 343 344 345 346 347 349 350 350 351 351 352 353 355 353 352 355 356 355 356 356 357 358 357 354 353 354 353 353 353 352 350 349 349 348 350 351 351 352 352 351 351
343 343 343 342 342 341 340 339 339 338 338 338 338 337 337 336 337 337 337 337 338 339 339 340 341 343 344 345 346 347 348 349 349 349 350 349 350 352 353 354 353 353 353 353 352 350 350 351 349 349 349 348 347 347 347 347 349 350 349 350 350 350 352
342 342 341 341 341 340 339 339 338 338 338 337 336 336 335 334 334 334 333 333 334 335 336 337 338 340 341 342 343 344 345 346 347 347 346 347 348 350 351 351 350 349 349 349 348 348 348 348 347 345 344 344 344 344 344 344 346 347 347 348 348 349 351
340 339 339 337 337 337 337 337 337 337 338 337 336 336 334 333 332 331 331 331 332 333 333 333 334 336 338 339 341 343 344 346 346 347 346 346 347 347 348 348 347 346 346 346 346 346 347 346 345 343 341 340 342 342 340 338 338 338 339 340 342 345 348
335 335 335 333 333 333 333 333 333 334 335 335 335 333 331 331 331 332 332 331 332 333 333 332 332 333 334 335 337 339 341 343 343 344 345 345 345 344 345 345 344 343 343 343 343 343 344 344 343 341 338 336 336 335 332 330 329 330 330 331 333 337 343
334 333 332 332 332 331 331 331 331 330 331 332 331 331 332 332 332 332 332 332 331 332 331 330 330 332 333 333 335 336 337 338 338 339 340 341 342 342 342 341 341 340 340 340 340 340 340 340 340 339 338 337 336 333 330 328 326 326 328 329 330 332 337
335 332 332 333 332 330 330 329 327 327 328 329 328 329 332 333 333 333 333 332 331 332 331 328 327 330 332 333 334 335 336 335 336 336 337 337 338 338 338 338 339 339 339 339 339 338 338 338 337 337 338 338 338 337 336 333 330 327 329 331 331 332 334
333 331 331 331 330 328 328 328 327 327 327 327 327 328 330 332 332 332 331 331 331 331 331 329 328 329 331 332 332 334 334 335 336 336 336 336 337 337 337 337 337 337 336 337 337 336 337 338 338 337 337 337 337 337 338 337 333 328 328 330 330 331 332
333 332 332 330 329 328 328 328 329 329 329 329 328 328 328 329 330 330 330 330 329 329 330 330 329 329 330 331 332 332 332 333 334 335 335 335 336 336 336 336 336 335 336 336 336 336 336 336 337 336 336 337 337 336 336 337 335 331 330 330 331 330 329
333 332 331 330 329 329 328 329 329 328 328 327 327 327 327 327 328 328 328 327 327 327 327 328 329 329 329 329 330 330 330 331 331 332 332 332 332 333 333 333 334 334 334 334 334 334 335 334 333 333 333 334 335 336 336 335 335 335 333 333 334 333 331
333 332 331 330 329 328 327 327 327 326 327 327 327 327 327 326 326 326 326 327 326 326 326 326 326 327 326 326 327 328 329 330 330 330 329 328 329 329 329 330 332 331 331 332 333 332 332 331 331 330 331 332 334 334 334 333 333 333 332 330 331 332 332
334 333 331 330 329 327 327 327 327 327 327 327 326 326 325 326 326 326 327 328 327 326 327 326 326 325 325 325 325 327 328 329 329 329 329 328 329 330 330 330 331 330 330 331 331 331 330 330 330 329 329 331 332 332 332 331 330 329 326 323 323 324 326
333 332 331 330 328 327 327 327 327 327 326 325 325 325 325 325 325 325 326 327 327 327 327 326 326 326 326 326 326 326 326 325 325 327 329 328 329 330 329 327 328 329 329 327 326 326 327 327 328 328 329 330 330 331 331 330 325 322 321 319 318 318 319
332 331 330 329 328 327 327 327 326 325 325 324 325 325 326 326 325 326 326 326 327 328 327 326 326 326 327 327 327 326 326 326 326 328 329 328 328 328 327 326 325 325 325 323 321 321 321 322 323 324 326 328 327 326 326 324 321 319 319 318 318 317 317
332 332 330 328 327 327 327 327 326 326 324 323 324 324 324 325 325 326 327 326 327 327 327 327 327 326 326 327 326 326 327 328 327 328 329 329 328 327 326 326 325 323 322 321 320 319 319 319 320 320 321 324 325 323 322 320 319 319 318 318 318 317 317
331 331 328 326 326 327 327 327 327 327 325 324 324 325 324 324 324 325 325 326 326 326 326 326 327 326 326 326 324 323 326 327 326 326 327 327 327 326 325 326 327 325 323 321 320 320 320 319 319 318 318 320 323 324 323 321 320 319 318 317 317 317 317
Wind_Speed
16 15 14 13 14 15 15 18 19 18 18 18 18 19 17 16 16 16 17 18 18 18 17 16 15 14 14 12 11 11 10 9 9 9 8 8 7 8 8 8 8 8 8 8 8 8 8 7 8 7 7 7 7 6 7 6 5 5 5 5 4 3 3
15 15 14 14 14 15 17 20 20 18 18 18 18 19 18 17 16 16 16 18 18 18 18 17 16 15 14 13 12 12 11 10 10 9 9 8 8 8 8 8 8 8 7 8 8 8 8 8 8 7 7 7 7 7 7 7 6 6 5 5 5 3 3
14 14 14 14 14 14 16 20 20 19 18 19 19 19 19 18 17 16 17 17 18 18 18 18 17 16 15 14 13 13 12 11 11 11 10 10 9 9 9 8 8 8 8 8 8 9 9 10 9 8 8 7 7 8 7 7 7 7 5 5 5 4 4
15 15 15 15 15 15 16 19 20 20 20 19 19 19 19 19 18 17 17 17 18 18 18 18 18 17 16 15 14 14 14 13 12 12 11 10 10 9 9 9 9 9 9 9 8 8 9 10 10 9 9 8 8 8 8 8 8 7 6 5 5 5 5
16 16 16 15 15 14 15 19 21 20 20 20 19 18 18 19 18 18 17 17 18 18 18 18 18 17 16 16 15 14 15 14 13 12 12 10 9 9 9 9 9 9 9 9 9 8 8 10 10 10 10 9 9 9 9 8 8 8 7 6 6 6 6
16 15 15 15 15 14 15 19 22 22 20 19 19 18 18 19 19 18 18 17 17 18 18 17 17 17 17 16 15 14 15 15 14 13 12 10 10 10 9 9 9 10 10 9 10 9 9 10 10 10 10 10 10 10 9 9 9 8 8 7 7 7 6
13 14 14 16 16 15 16 19 22 22 20 19 18 18 18 19 19 18 18 17 17 18 18 18 17 17 17 16 16 15 15 15 15 14 13 12 12 11 11 10 10 10 10 9 10 10 10 10 10 10 10 10 10 10 9 9 9 8 8 8 8 7 6
9 10 10 13 16 16 16 19 21 21 20 19 18 17 18 18 18 18 18 17 17 17 17 17 18 17 17 16 16 15 15 15 15 15 14 14 14 13 12 12 11 11 10 10 10 10 10 11 11 10 10 10 9 9 9 9 9 9 9 8 8 8 8
7 5 3 8 14 16 16 19 20 20 19 18 18 18 19 18 18 18 17 17 17 17 17 17 16 17 16 16 16 16 15 15 15 15 15 15 15 15 14 13 13 12 12 12 12 11 11 11 11 11 10 9 9 9 9 9 10 10 9 9 9 8 8
8 8 8 12 15 13 15 18 19 19 18 17 17 18 18 17 16 16 17 17 17 18 18 18 16 16 16 16 16 16 16 16 15 16 16 16 15 15 15 14 13 13 13 13 12 12 12 11 11 11 11 10 10 10 10 10 10 10 10 10 9 9 9
9 8 9 10 11 12 14 16 16 16 16 15 15 16 17 17 16 16 17 17 17 18 19 18 17 16 17 16 16 16 16 16 16 16 16 16 16 15 15 14 14 14 14 13 12 12 12 12 11 11 12 11 11 11 11 11 11 11 11 11 10 10 10
10 8 7 6 6 7 8 10 12 14 14 14 14 14 15 16 16 16 17 16 16 16 17 18 17 17 17 16 16 16 16 16 16 16 16 16 16 16 15 15 14 14 14 13 13 12 12 13 13 12 12 12 11 12 12 12 11 11 11 11 10 10 10
11 9 8 7 7 6 5 7 9 12 13 13 14 14 14 14 14 15 16 16 15 15 16 16 17 18 17 16 16 16 16 16 16 16 16 16 15 15 15 16 15 14 14 13 13 14 13 13 13 13 13 13 13 12 12 12 12 12 11 11 10 10 10
13 11 10 9 8 7 6 6 7 9 11 10 11 12 13 13 13 13 14 14 14 14 15 16 16 17 17 17 17 16 16 16 15 15 15 14 14 14 13 14 15 14 14 13 14 15 14 14 14 13 13 13 13 13 13 13 13 12 12 12 12 11 11
13 13 13 12 10 9 7 6 6 8 9 8 8 10 11 12 13 13 13 13 14 14 15 15 15 16 16 16 16 16 16 15 14 13 13 11 12 13 13 12 13 14 14 14 14 14 14 15 15 14 14 14 14 14 13 13 13 13 13 12 12 12 12
12 13 14 13 12 11 8 7 8 9 9 8 7 9 10 10 12 13 13 13 14 14 14 14 14 13 14 15 15 15 16 15 14 13 13 12 12 12 12 13 13 14 14 15 15 14 14 15 15 15 15 15 15 14 14 14 14 14 15 14 12 11 10
12 11 11 11 12 11 8 8 8 9 9 8 8 10 11 10 11 13 13 13 14 13 13 13 13 12 12 12 13 13 14 14 13 13 13 12 12 12 12 13 13 14 13 14 15 15 15 15 15 16 16 15 15 15 14 14 13 12 15 17 16 13 10
9 10 9 9 9 9 8 7 8 10 10 10 10 11 11 11 12 12 12 12 12 12 11 11 11 11 11 10 10 11 12 12 12 12 12 11 10 10 10 11 12 13 13 13 14 14 15 15 16 16 16 16 16 16 14 12 12 12 13 15 16 16 14
7 8 7 7 7 6 5 4 5 6 7 8 8 7 6 7 8 9 9 9 9 9 10 9 9 9 8 7 7 8 9 10 10 12 12 10 9 8 8 9 10 11 11 11 11 11 13 15 15 15 16 16 16 16 11 8 12 15 14 14 15 15 15
7 7 8 8 8 8 8 9 9 9 10 9 9 8 7 7 10 12 13 12 9 7 7 7 8 9 9 7 7 7 9 10 11 12 13 12 11 11 10 10 10 10 10 9 9 9 9 12 14 14 14 14 14 12 7 6 10 12 13 14 14 14 15
9 9 9 9 8 8 9 10 11 12 12 12 11 11 11 11 13 15 16 14 12 9 7 6 6 8 9 9 8 9 11 13 14 14 13 13 13 14 14 13 13 13 11 9 9 10 10 11 12 11 10 11 9 5 2 3 6 8 9 11 12 13 14
9 10 9 9 9 9 10 11 11 13 13 12 12 12 12 13 15 17 16 14 13 12 10 8 5 4 5 7 8 8 9 11 12 11 12 13 13 12 11 12 12 12 11 9 10 13 11 10 11 12 11 10 6 2 2 3 4 7 9 10 11 12 12
11 11 11 11 12 12 12 13 14 14 14 16 16 16 16 16 17 20 20 17 16 16 15 13 10 7 6 7 7 7 6 6 8 8 8 10 11 9 7 7 8 7 7 7 7 8 8 7 7 9 9 5 1 3 7 5 4 5 7 8 10 10 10
13 13 14 15 16 16 15 15 15 15 17 19 19 20 22 22 21 22 23 20 19 20 19 17 14 12 10 9 7 7 7 6 6 7 7 7 8 8 6 5 5 5 4 3 3 4 6 5 4 3 4 5 8 5 6 5 3 4 6 7 8 8 8
13 15 17 18 18 18 17 17 17 17 18 19 19 19 21 22 22 22 22 20 20 21 20 18 16 13 11 9 8 7 6 5 5 6 7 7 8 8 7 7 7 5 5 5 4 4 5 5 6 4 3 6 9 6 3 3 3 4 5 7 8 7 7
15 16 17 18 18 18 18 17 16 16 17 17 17 16 17 18 19 20 20 19 19 19 18 16 15 14 12 11 10 7 6 6 7 8 9 9 9 8 8 9 8 7 6 6 4 4 5 6 7 7 6 7 6 2 1 1 1 0 2 4 5 7 7
16 16 17 17 17 17 16 15 15 15 14 13 14 14 14 14 15 14 14 15 15 15 15 15 15 13 13 13 11 8 7 8 9 11 11 11 10 9 9 9 9 7 6 7 6 5 5 6 6 6 7 7 5 3 4 4 4 4 3 3 2 2 4
17 18 18 16 14 14 15 14 15 15 11 9 9 11 11 11 12 12 12 13 13 11 12 14 14 13 13 12 10 7 7 8 9 10 10 9 9 9 8 8 8 7 6 7 7 6 6 6 6 6 7 7 6 6 6 6 6 7 6 6 6 3 2
17 17 16 14 12 13 14 13 13 12 10 7 8 8 9 10 11 11 10 11 11 10 10 11 11 11 10 9 8 6 7 8 7 7 8 7 7 7 7 6 7 7 7 7 6 6 5 5 4 5 7 7 6 6 5 5 6 7 6 5 6 5 4
17 16 15 14 14 14 13 11 11 10 9 8 7 7 8 9 10 10 9 9 9 9 9 9 9 7 6 5 5 5 5 6 6 5 6 6 5 5 5 5 5 5 4 4 3 4 4 3 2 4 5 5 5 5 4 4 6 7 7 6 7 7 6
16 16 15 15 15 13 11 10 10 10 9 8 7 7 7 7 8 9 8 7 7 7 7 7 6 6 5 4 4 4 4 5 5 5 5 5 4 4 3 3 4 4 3 2 2 2 2 1 1 2 2 3 3 3 3 4 5 6 6 7 7 7 8
16 15 15 14 12 11 10 10 10 10 10 9 8 8 9 8 8 8 7 6 6 6 6 5 5 5 5 4 3 3 3 4 5 5 5 5 4 4 3 2 2 3 1 1 1 1 0 1 1 1 2 2 2 3 3 3 3 3 3 5 5 6 7
14 13 13 12 10 9 9 10 10 9 9 9 8 9 9 8 8 7 5 5 5 6 6 5 5 5 4 3 2 3 2 2 2 4 5 5 5 4 4 3 3 3 2 0 1 1 1 1 1 0 1 2 2 3 3 2 2 4 4 4 4 6 7
15 14 12 10 9 8 8 9 10 9 8 8 7 8 8 8 7 6 4 4 5 5 5 4 4 4 4 3 2 2 2 1 2 2 3 4 3 4 5 5 3 3 3 4 5 4 4 2 0 1 2 1 2 2 3 3 5 6 4 4 5 6 8
15 16 13 9 9 8 7 7 8 8 7 6 6 7 7 7 6 5 4 4 4 4 4 4 3 3 3 3 2 2 2 3 4 2 2 3 4 7 8 9 9 8 7 6 5 5 7 7 5 5 5 3 1 1 2 6 9 7 3 3 4 5 6
16 16 14 12 10 9 8 7 6 7 6 5 5 6 7 7 6 5 5 5 4 4 4 4 3 3 3 3 3 2 1 1 2 2 1 3 5 5 3 2 5 7 8 6 3 3 5 7 6 6 7 6 4 3 5 7 8 5 4 3 4 4 5
16 15 15 15 14 12 10 8 7 7 5 4 3 4 5 6 5 5 5 5 4 4 3 3 3 3 3 3 3 3 2 2 2 2 1 1 3 4 4 3 1 4 4 4 3 3 4 5 5 4 4 5 4 2 3 5 4 3 3 3 3 4 5
12 12 12 12 13 15 14 11 9 7 6 5 4 4 4 5 4 4 4 4 3 3 3 2 2 2 3 4 4 3 2 3 3 2 1 1 1 1 2 3 2 1 1 2 2 2 3 4 4 4 4 2 2 2 2 3 3 3 3 2 3 4 4
Wind_Direction
174 175 180 180 175 179 177 174 179 178 172 172 172 172 177 174 166 167 168 169 172 172 173 175 175 178 179 179 180 176 175 174 173 177 176 176 179 177 179 178 175 179 181 179 179 178 175 173 176 176 180 185 188 191 192 197 202 202 207 208 210 227 236
180 177 179 181 179 182 178 174 179 179 173 175 176 177 178 175 172 171 169 171 175 173 174 176 176 179 181 181 182 180 181 181 179 182 181 181 184 183 183 180 176 178 181 179 174 172 173 171 174 176 179 186 187 189 192 193 199 201 204 209 213 226 233
184 180 178 180 180 183 178 175 178 178 178 180 180 180 180 177 176 174 171 173 176 176 176 177 178 181 182 182 184 183 185 186 185 187 189 190 189 184 180 180 181 181 179 177 173 174 177 174 175 178 178 186 186 186 193 193 196 202 201 207 216 219 222
188 182 178 180 182 183 179 176 178 179 183 184 183 183 180 178 178 177 176 176 178 179 179 179 180 182 183 183 185 186 188 192 193 193 195 194 188 184 183 183 184 183 180 179 179 179 177 174 178 181 180 185 184 183 192 194 194 200 201 210 219 219 224
190 184 179 181 182 181 180 180 180 183 185 184 184 184 180 180 181 181 181 181 181 181 182 182 182 183 184 185 188 187 188 193 195 197 199 195 188 186 189 190 186 186 184 180 181 180 174 176 182 184 184 187 186 185 189 192 193 197 199 208 217 220 228
190 187 180 180 183 182 182 183 183 184 186 183 183 185 183 184 185 184 183 184 184 182 181 184 183 183 186 187 189 188 187 192 195 198 199 195 193 192 192 194 191 188 186 182 183 183 181 185 187 186 189 191 190 190 188 190 195 197 198 205 214 224 233
191 188 183 179 183 185 183 184 185 184 184 183 184 187 188 186 185 185 184 185 186 182 181 185 185 185 187 189 191 189 187 191 193 196 199 195 194 195 193 194 195 192 188 187 188 187 186 190 190 189 194 194 193 192 186 189 198 197 197 204 210 221 229
192 186 189 187 186 186 184 185 187 184 183 183 183 189 192 188 186 185 183 185 187 184 183 186 186 184 185 189 192 191 191 192 192 195 200 198 195 195 195 194 194 193 190 190 192 191 190 193 193 192 195 196 195 194 186 187 200 203 201 207 210 216 223
187 166 197 223 203 187 181 185 186 183 183 182 180 189 194 189 183 182 182 185 186 185 185 188 189 184 184 190 193 192 193 194 194 195 199 203 201 198 199 196 193 193 194 194 193 193 194 196 193 191 196 198 193 194 193 191 203 211 209 211 213 217 227
176 163 182 219 215 193 181 184 186 183 182 180 178 186 191 185 179 178 181 185 186 187 186 188 191 186 183 190 193 193 194 195 197 197 199 205 206 203 203 201 196 195 197 199 197 193 194 198 195 189 194 201 194 194 202 200 205 214 214 214 217 220 229
165 159 165 190 196 189 185 186 186 181 175 173 176 181 183 180 177 177 180 182 184 187 187 188 191 189 185 191 194 193 196 197 199 200 201 205 207 204 206 207 202 200 201 203 202 198 194 195 197 190 192 203 201 199 206 206 207 214 216 218 220 221 225
157 148 128 119 129 153 170 170 173 171 167 170 176 177 176 175 175 176 180 183 183 185 186 186 190 190 187 191 193 192 196 200 201 201 201 206 208 204 204 208 208 206 205 203 204 205 199 195 199 198 198 205 206 203 207 209 210 214 218 223 223 223 226
158 152 137 124 115 112 117 129 145 156 160 170 177 173 172 173 174 176 179 182 182 182 184 184 187 189 188 191 194 192 194 201 203 204 203 205 210 209 204 205 209 211 210 208 208 209 206 201 202 202 201 205 209 208 208 209 212 214 217 224 227 227 230
170 169 159 150 141 136 137 132 137 152 157 165 171 166 166 173 175 179 182 183 183 183 185 184 184 185 186 189 193 192 194 200 203 207 208 205 208 215 213 207 206 211 213 213 215 215 213 211 210 208 208 208 211 213 212 212 215 217 218 223 228 230 231
177 184 180 171 166 162 159 149 146 157 160 165 172 165 165 172 174 177 182 183 184 187 187 186 184 185 186 188 190 190 193 199 202 206 212 209 205 213 219 215 209 210 212 216 220 221 218 218 217 215 216 215 215 219 220 220 220 220 220 221 225 232 236
178 188 189 185 185 181 175 169 166 169 169 174 187 185 181 181 177 179 183 183 185 188 187 186 183 183 187 188 187 186 188 193 195 198 203 205 204 207 214 217 216 216 215 215 219 224 224 224 223 220 220 221 220 220 223 227 227 223 219 218 220 226 235
174 181 188 192 193 188 182 180 174 175 176 177 192 201 199 193 186 184 182 181 184 186 188 190 187 186 191 189 184 181 180 182 185 189 194 198 202 206 209 214 218 219 218 216 218 223 225 226 227 226 225 225 224 225 228 229 230 223 214 214 220 226 236
171 172 175 183 190 187 186 190 187 188 187 187 197 205 207 204 196 190 185 184 185 184 184 189 191 191 191 186 180 178 179 182 186 191 193 194 197 203 208 215 216 216 219 221 221 222 224 226 228 228 230 231 228 230 231 222 217 222 220 218 222 229 238
159 159 156 158 158 149 142 150 165 173 171 168 171 174 182 186 177 166 162 163 166 169 174 182 189 192 188 180 179 185 192 197 202 204 204 201 201 204 208 215 216 217 219 223 226 227 226 227 228 229 232 235 235 236 231 203 200 212 220 222 225 229 235
118 121 118 114 112 107 101 96 96 100 104 108 112 112 118 131 137 136 136 136 139 150 163 167 169 172 169 169 187 205 214 214 213 213 210 208 212 217 219 220 220 222 223 225 230 234 233 235 237 236 235 236 237 236 219 182 194 205 213 221 227 234 240
111 112 110 105 105 109 111 109 109 110 105 100 99 104 108 117 129 135 140 149 154 152 151 147 145 154 156 157 176 202 215 214 212 212 208 207 211 217 220 222 224 224 224 225 229 230 235 242 245 249 253 249 246 235 156 165 202 212 222 232 239 247 250
119 116 115 117 120 122 122 120 120 119 114 109 107 105 101 106 118 123 126 139 144 137 139 147 151 165 160 150 162 186 202 206 207 208 207 207 208 210 214 220 224 224 219 221 229 229 233 242 244 249 260 266 271 263 229 240 239 231 237 243 245 250 254
109 114 117 118 117 116 118 118 116 115 114 112 108 104 103 106 111 113 113 117 120 117 119 121 120 123 123 120 132 148 159 175 186 189 194 202 201 198 202 208 211 212 208 215 226 219 212 217 221 227 231 227 172 204 219 225 239 245 252 257 255 255 258
105 113 113 113 111 109 108 109 109 110 109 106 102 102 106 108 109 110 110 109 111 111 109 105 105 108 107 103 110 127 140 153 168 172 178 189 187 177 167 161 162 163 164 169 174 165 165 158 140 163 184 130 104 131 183 189 213 254 272 278 271 263 260
111 115 115 113 110 107 106 105 104 105 105 103 102 103 105 105 102 99 98 98 101 100 96 95 98 100 100 98 97 107 128 141 148 157 165 168 161 153 142 130 123 118 108 99 97 110 112 99 86 87 117 114 112 124 155 175 201 239 266 274 270 256 252
117 118 116 110 107 107 107 105 104 102 101 101 106 108 106 104 101 97 95 94 92 88 83 85 90 91 91 94 92 92 106 112 106 109 115 118 118 122 126 119 109 108 112 110 113 115 104 93 86 89 104 121 138 151 35 44 109 160 268 271 271 250 239
113 109 107 105 107 110 108 103 98 93 90 94 104 108 106 105 105 104 103 98 90 83 81 84 86 83 84 89 88 84 88 90 88 88 89 92 99 103 107 108 107 113 123 122 119 111 106 109 107 102 104 109 123 118 76 66 69 60 50 33 1 252 219
103 101 102 101 100 99 96 92 90 90 87 85 92 97 99 104 108 108 107 103 99 94 94 96 93 84 81 87 88 87 94 91 84 82 82 90 101 101 97 100 101 98 95 98 101 94 91 101 107 110 110 105 102 100 85 70 67 65 60 52 45 62 123
103 107 111 108 103 102 102 100 99 102 104 100 97 100 102 102 102 103 102 101 103 106 106 105 100 86 81 88 92 95 100 94 87 90 94 98 104 102 100 102 99 94 94 100 108 109 104 107 111 112 114 112 109 109 97 69 57 56 59 61 56 62 76
122 128 129 124 121 120 119 118 117 116 113 107 104 106 105 100 96 97 96 93 96 105 106 104 105 102 99 107 111 114 116 109 107 114 112 109 109 107 110 113 106 103 109 113 124 126 114 111 117 113 114 118 116 116 117 103 81 64 56 62 60 54 58
133 134 129 125 127 132 133 127 121 115 107 104 104 102 101 102 99 97 93 87 91 103 108 113 124 128 136 146 141 143 148 142 142 141 131 130 131 124 130 143 134 123 119 101 97 112 109 105 108 108 114 121 123 127 127 122 111 86 56 46 47 43 45
133 133 130 127 130 137 132 120 114 112 110 110 112 111 110 111 109 104 101 100 101 102 107 119 130 129 135 146 146 151 165 168 167 159 149 147 149 149 161 165 127 111 127 178 143 121 154 214 173 156 155 146 133 127 115 105 121 109 57 29 23 23 30
114 114 117 117 119 126 125 116 112 111 108 106 107 108 108 108 109 111 116 121 120 112 109 113 115 116 122 133 147 162 178 190 178 160 160 167 169 166 164 156 140 139 145 200 158 152 223 236 216 196 173 164 153 140 138 131 101 81 48 20 8 7 19
106 102 100 96 97 105 111 111 112 112 108 102 100 103 106 107 109 110 109 107 108 108 111 111 110 118 127 137 155 153 139 168 188 161 162 167 129 83 70 57 64 121 102 47 38 32 6 351 27 351 319 220 168 187 203 160 103 82 44 8 4 10 21
115 113 113 107 98 95 92 94 101 106 105 101 100 105 106 105 106 110 107 102 102 108 115 111 106 116 125 124 131 128 129 178 191 169 156 156 108 73 57 40 38 58 77 65 47 27 9 7 20 13 356 4 54 6 20 71 84 81 52 15 14 14 22
127 123 126 125 114 106 105 103 99 94 88 87 96 107 107 104 104 106 106 108 114 118 122 123 122 125 121 106 103 99 87 160 163 109 131 171 135 100 87 50 39 53 66 66 45 359 350 1 13 9 7 27 48 24 24 55 70 67 47 33 22 18 21
142 138 144 145 137 133 134 129 119 115 110 111 111 108 109 109 106 101 100 105 114 118 121 129 128 129 126 103 87 73 41 40 80 75 2 218 141 120 131 147 79 22 23 22 358 317 308 324 339 338 350 35 65 46 10 27 37 30 26 16 359 3 6
149 143 150 153 146 144 145 144 139 134 133 137 133 121 118 116 108 104 104 102 105 113 116 122 122 120 116 102 98 99 69 56 82 96 32 11 134 156 172 170 166 178 246 274 279 270 272 290 301 302 306 338 78 94 23 357 347 344 349 339 334 340 338